Weather History for Milwaukee, WI

Change the Weather History Date:

Thursday, January 17, 2013

  Actual Average Record
Temperature  
Mean Temperature 24 °F 22 °F  
Max Temperature 31 °F 29 °F 54 °F (1894)
Min Temperature 17 °F 15 °F -26 °F (1982)
Degree Days  
Heating Degree Days 41 43  
Month to date heating degree days 647 726  
Since 1 July heating degree days 2976 3286  
Cooling Degree Days 0 0  
Month to date cooling degree days 0 0  
Year to date cooling degree days 0 0  
Moisture  
Dew Point 7 °F    
Average Humidity 58    
Maximum Humidity 78    
Minimum Humidity 38    
Precipitation  
Precipitation 0.00 in 0.05 in 0.77 in (1897)
Month to date precipitation 0.93 1.01  
Year to date precipitation 0.93 1.01  
Snow  
Snow 0.00 in 0.50 in 4.80 in (2011)
Month to date snowfall 0.2 8.3  
Since 1 July snowfall 7.1 21.6  
Snow Depth T in    
Sea Level Pressure  
Sea Level Pressure 30.32 in    
Wind  
Wind Speed 9 mph (NW)    
Max Wind Speed 18 mph    
Max Gust Speed 25 mph    
Visibility 10 miles    
Events      
T = Trace of Precipitation, MM = Missing Value Source: NWS Daily Summary

Daily Weather History Graph

Daily Weather History Graph

Search for Another Location

Airport:

Trip Planner

Search our weather history database for the weather conditions in past years. The results will help you decide how hot, cold, wet, or windy it might be!

Date:

Astronomy

Jan. 17, 2013 Rise Set
Actual Time 7:18 AM CST 4:45 PM CST
Civil Twilight 6:47 AM CST 5:16 PM CST
Nautical Twilight 6:12 AM CST 5:51 PM CST
Astronomical Twilight 5:38 AM CST 6:25 PM CST
Moon 10:14 AM CST (1/17) 11:48 PM CST (1/17)
Length of Visible Light 10h 29m
Length of Day
9h 26m
Waxing Crescent, 38% of the Moon is Illuminated
Jan 17
Waxing Crescent
Jan 18
First Quarter
Jan 26
Full
Feb 3
Last Quarter
Feb 10
New

Hourly Weather History & Observations

Time (CST) Temp. Windchill Dew Point Humidity Pressure Visibility Wind Dir Wind Speed Gust Speed Precip Events Conditions
12:52 AM 28.9 °F 19.2 °F 19.0 °F 67% 30.10 in 10.0 mi NNW 11.5 mph 17.3 mph N/A   Partly Cloudy
1:52 AM 28.0 °F 20.8 °F 12.9 °F 53% 30.13 in 10.0 mi NW 6.9 mph - N/A   Clear
2:52 AM 26.1 °F 16.8 °F 12.9 °F 58% 30.18 in 10.0 mi NNW 9.2 mph - N/A   Clear
3:52 AM 24.1 °F 13.7 °F 12.0 °F 60% 30.20 in 10.0 mi NNW 10.4 mph - N/A   Clear
4:52 AM 21.9 °F 13.4 °F 10.9 °F 63% 30.23 in 10.0 mi WNW 6.9 mph - N/A   Clear
5:52 AM 21.0 °F 9.3 °F 9.0 °F 60% 30.25 in 10.0 mi WNW 11.5 mph - N/A   Clear
6:52 AM 19.9 °F 7.9 °F 7.0 °F 57% 30.28 in 10.0 mi NW 11.5 mph - N/A   Clear
7:52 AM 19.0 °F 8.2 °F 6.1 °F 57% 30.31 in 10.0 mi WNW 9.2 mph - N/A   Clear
8:52 AM 19.0 °F 5.6 °F 3.9 °F 52% 30.33 in 10.0 mi WNW 13.8 mph 20.7 mph N/A   Clear
9:52 AM 21.0 °F 7.1 °F 1.9 °F 44% 30.34 in 10.0 mi NW 16.1 mph 19.6 mph N/A   Clear
10:52 AM 21.9 °F 10.4 °F 1.9 °F 42% 30.35 in 10.0 mi NW 11.5 mph 18.4 mph N/A   Clear
11:52 AM 23.0 °F 11.1 °F -0.0 °F 37% 30.35 in 10.0 mi WNW 12.7 mph 21.9 mph N/A   Partly Cloudy
12:52 PM 23.0 °F 10.6 °F 1.0 °F 39% 30.35 in 10.0 mi NNW 13.8 mph 23.0 mph N/A   Partly Cloudy
1:52 PM 23.0 °F 11.7 °F 1.9 °F 40% 30.33 in 10.0 mi WNW 11.5 mph - N/A   Clear
2:52 PM 25.0 °F 15.5 °F 3.9 °F 41% 30.32 in 10.0 mi West 9.2 mph - N/A   Clear
3:52 PM 24.1 °F 12.5 °F 5.0 °F 44% 30.33 in 10.0 mi West 12.7 mph - N/A   Partly Cloudy
4:52 PM 23.0 °F 13.1 °F 6.1 °F 48% 30.35 in 10.0 mi West 9.2 mph - N/A   Partly Cloudy
5:52 PM 23.0 °F 17.0 °F 6.1 °F 48% 30.37 in 10.0 mi WNW 4.6 mph - N/A   Partly Cloudy
6:52 PM 21.9 °F 17.2 °F 7.0 °F 53% 30.38 in 10.0 mi WSW 3.5 mph - N/A   Clear
7:52 PM 21.0 °F - 8.1 °F 57% 30.40 in 10.0 mi Calm Calm - N/A   Clear
8:52 PM 21.0 °F 16.2 °F 8.1 °F 57% 30.41 in 10.0 mi WNW 3.5 mph - N/A   Clear
9:52 PM 19.9 °F 13.4 °F 8.1 °F 60% 30.41 in 10.0 mi NW 4.6 mph - N/A   Clear
10:52 PM 18.0 °F 12.7 °F 7.0 °F 62% 30.40 in 10.0 mi NNW 3.5 mph - N/A   Clear
11:52 PM 17.1 °F 11.7 °F 6.1 °F 62% 30.42 in 10.0 mi NNW 3.5 mph - N/A   Clear